Flag for Germany Weather past 2 weeks in Munich, Bavaria, Germany

Now
39 °F

Light rain. Partly sunny.


Feels Like: 27 °F
Forecast: 30 / 46 °F
Wind: 30 mph from Southwest

Location: Oberpfaffenhofen

Current Time: Apr 2, 2015 at 12:41:31 PM

Latest Report: Apr 2, 2015 at 12:20 PM


Visibility: N/A

Pressure: 29.83 "Hg

Humidity: 87%

Dew point: 36 °F

Location of MunichLocation

Historic Weather in Munich — Graph

°F

Munich temperature yesterday

Maximum temperature yesterday: 43 °F (at 4:50 PM)
Minimum temperature yesterday: 32 °F (at 6:50 AM)
Average temperature yesterday: 37 °F

Past Weeks' High & Low Weather Summary

 TemperatureHumidityPressure
High59 °F (Mar 18, 3:50 PM)100% (Mar 24, 6:50 AM)30.24 "Hg (Mar 24, 6:50 AM)
Low27 °F (Mar 20, 6:50 AM)28% (Mar 20, 4:20 PM)29.53 "Hg (Mar 25, 1:50 PM)
Average46 °F65%29.91 "Hg
* Reported Mar 18 10:20 AM — Apr 2 11:20 AM, Munich, Weather by CustomWeather, © 2015

Note: Actual official high and low records may vary slightly from our data, if they occured in-between our weather recording intervals... More about our weather records

Advertising

Munich weather history for previous 24 hours

 ConditionsComfort  
Time TempWeatherWind HumidityBarometerVisibility
11:20 AM
Thu, Apr 2
37 °FLight rain. Partly sunny.26 mph87%29.83 "HgN/A
10:50 AM37 °FLight rain. Partly sunny.28 mph87%29.86 "Hg6 mi
10:20 AM37 °FLight rain. Partly sunny.23 mph87%29.86 "HgN/A
9:50 AM36 °FLight rain. Partly sunny.26 mph93%29.89 "HgN/A
9:20 AM36 °FLight rain. Partly sunny.22 mph93%29.92 "HgN/A
8:50 AM36 °FLight rain. Partly sunny.17 mph93%29.92 "HgN/A
8:20 AM34 °FLight snow. Partly sunny.17 mph93%29.95 "HgN/A
7:50 AM34 °FLight snow. Passing clouds.16 mph93%29.95 "Hg6 mi
7:20 AM34 °FLight snow. Passing clouds.16 mph93%29.98 "Hg6 mi
6:50 AM34 °FLight rain. Passing clouds.17 mph93%29.98 "Hg5 mi
6:50 PM
Wed, Apr 1
37 °FScattered clouds.13 mph70%30.07 "HgN/A
6:20 PM36 °FSprinkles. Partly sunny.18 mph87%30.09 "HgN/A
5:50 PM41 °FPartly sunny.21 mph57%30.07 "HgN/A
5:20 PM41 °FScattered clouds.21 mph57%30.07 "HgN/A
4:50 PM43 °FScattered clouds.21 mph46%30.07 "HgN/A
4:20 PM39 °FSprinkles. Scattered clouds.13 mph75%30.07 "HgN/A
3:50 PM41 °FPartly sunny.24 mph57%30.07 "HgN/A
3:20 PM36 °FLight rain. Partly sunny.21 mph81%30.07 "Hg5 mi
2:50 PM41 °FPartly sunny.24 mph66%30.04 "HgN/A
2:20 PM39 °FPartly sunny.24 mph65%30.07 "HgN/A
1:50 PM41 °FPartly sunny.22 mph61%30.07 "HgN/A
1:20 PM39 °FPartly sunny.24 mph56%30.07 "HgN/A
12:50 PM37 °FPartly sunny.20 mph70%30.07 "HgN/A
12:20 PM37 °FPartly sunny.21 mph70%30.07 "HgN/A
Weather by CustomWeather, © 2015

See weather overviewHow to use our weather pages